Location: Moneta
(37.1826°N, 79.6196°W)
Time: 14:10:16
(UTC+00:00)

ISS - Visible Passes

Search period start: 30 January 2023 00:00
Search period end: 09 February 2023 00:00
Orbit: 413 x 419 km, 51.6° (Epoch: 30 January)

Date Brightness Start Highest point End Pass type
(mag) Time Alt. Az. Time Alt. Az. Time Alt. Az.
30 Jan -1.0 00:34:36 10° NNW 00:35:05 12° NNW 00:35:05 12° NNW visible
30 Jan -1.8 23:46:21 10° NNW 23:48:27 15° NNE 23:48:41 15° NNE visible
01 Feb -2.0 00:33:34 10° NW 00:35:17 26° NNW 00:35:17 26° NNW visible
01 Feb -2.8 23:45:03 10° NNW 23:48:04 30° NNE 23:49:07 25° ENE visible
02 Feb -0.2 01:21:52 10° WNW 01:22:03 11° WNW 01:22:03 11° WNW visible
03 Feb -3.0 00:32:49 10° WNW 00:36:03 48° SW 00:36:03 48° SW visible
03 Feb -3.9 23:43:59 10° NW 23:47:21 86° NE 23:50:19 13° SE visible
05 Feb -0.8 00:32:51 10° W 00:34:57 16° SW 00:37:03 10° SSW visible
05 Feb -1.7 23:43:20 10° WNW 23:46:17 28° SW 23:49:13 10° SSE visible
